Weather observations for the past three days for
Temple, Draughon-Miller Central Texas Regional Airport
Metric (Imperial)
Date Time (cdt) Wind (kph) Vis. (km) Weather Sky Cond. Temperature (ºC) Relative Humidity Wind Chill (°C) Heat Index (°C) Pressure Precipitation (cm)
Air Dwpt 6 hour altimeter (cm) sea level (mb) 1 hr 3 hr 6 hr
Max. Min.
08 18:51 SE 11 0.00 Overcast FEW019 OVC065 23.3 20 23.3 20 82% 75.69 1008.4
08 17:51 SE 13 0.00 Mostly Cloudy SCT015 BKN065 23.3 19.4 79% 75.72 1008.6
08 16:51 SE 11 0.00 Overcast BKN013 OVC019 22.8 19.4 81% 75.74 1009.0
08 15:51 SE 13 0.00 Overcast OVC009 21.7 18.9 84% 75.82 1010.0
08 14:51 SE 7 0.00 Overcast OVC009 20.6 18.3 87% 75.87 1010.8
08 13:51 SE 9 0.00 Overcast OVC009 20.6 17.8 84% 75.92 1011.4
08 12:51 E 13 0.00 Overcast OVC011 20 17.8 20 15 87% 75.97 1012.0
08 11:51 SE 6 0.00 Overcast OVC018 19.4 16.7 84% 76.02 1013.0
08 10:51 SE 9 0.00 Overcast OVC018 19.4 16.7 84% 76.05 1013.3
08 09:51 E 6 0.00 Overcast OVC018 18.3 16.1 87% 76.05 1013.1
08 08:51 SE 6 0.00 Overcast OVC018 16.7 15 90% 76.1 1013.8
08 07:51 Calm 0.00 Overcast OVC022 15.6 14.4 93% 76.1 1013.8
08 06:51 SE 9 0.00 Mostly Cloudy FEW023 BKN050 BKN085 15 13.9 15 12.8 93% 76.05 1013.3
08 05:51 Calm 0.00 Overcast OVC026 15 14.4 96% 76.12 1014.1
08 04:51 N 7 0.00 Overcast OVC028 15 13.9 93% 76.17 1014.8
08 03:51 N 6 0.00 Overcast OVC028 14.4 13.3 93% 76.12 1014.2
08 02:51 N 7 0.00 Mostly Cloudy BKN024 13.9 13.3 96% 76.1 1014.1
08 01:51 NW 6 0.00 Fair CLR 13.3 12.2 93% 76.17 1015.1
08 00:51 NW 7 0.00 Fair CLR 13.3 12.8 18.9 13.3 97% 76.2 1015.3
07 23:51 NW 6 0.00 Fair CLR 14.4 12.8 90% 76.23 1015.7
07 22:51 NW 6 0.00 Fair CLR 14.4 12.8 90% 76.23 1015.7
07 21:51 NE 7 0.00 Fair CLR 15 12.8 87% 76.12 1014.5
07 20:51 N 7 0.00 Fair CLR 16.1 12.8 81% 76.12 1014.2
07 19:51 N 7 0.00 Fair CLR 17.2 13.3 78% 76.2 1015.3
07 18:51 E 7 0.00 Fair CLR 18.9 12.8 18.9 17.2 68% 76.17 1014.9
07 17:51 N 6 0.00 Fair CLR 18.9 12.2 65% 76.23 1015.6
07 16:51 NE 11 0.00 A Few Clouds FEW120 18.9 11.1 61% 76.23 1015.5
07 15:51 E 6 0.00 Fair CLR 18.3 11.1 63% 76.3 1016.6
07 14:51 E 6 0.00 Fair CLR 18.3 11.1 63% 76.35 1017.3
07 13:51 NE 11 0.00 Fair CLR 17.2 10.6 65% 76.38 1017.7
07 12:51 N 17 0.00 Fair CLR 17.2 10.6 18.3 13.3 65% 76.33 1017.2
07 11:51 NE 11 0.00 Fair CLR 17.8 10.6 63% 76.48 1018.8
07 10:51 NE 17 0.00 Fair CLR 16.7 10 65% 76.45 1018.7
07 09:51 NE 15 0.00 Fair CLR 15.6 10.6 72% 76.48 1019.1
07 08:51 N 24 G 33 0.00 Fair CLR 13.9 11.1 83% 76.43 1018.1
07 07:51 N 26 0.00 Mostly Cloudy BKN014 13.3 11.1 87% 76.43 1018.3
07 06:51 N 20 0.00 Overcast BKN010 BKN014 OVC029 13.9 11.7 14.4 13.9 87% 76.4 1017.8
07 05:51 N 20 0.00 Overcast OVC008 13.9 12.8 93% 76.38 1017.4
07 04:51 N 17 0.00 Overcast OVC008 13.9 12.8 93% 76.33 1016.9
07 03:51 NE 17 0.00 Overcast OVC008 14.4 12.8 90% 76.28 1016.0
07 02:51 NE 11 0.00 Overcast OVC010 13.9 12.2 90% 76.23 1015.5
07 01:51 NE 13 0.00 A Few Clouds FEW012 13.9 11.7 87% 76.2 1015.2
07 00:51 NE 15 0.00 Partly Cloudy SCT014 14.4 12.2 16.1 14.4 87% 76.23 1015.5
06 23:51 NE 20 G 28 0.00 Overcast OVC030 15.6 12.2 80% 76.2 1015.5
06 22:51 N 19 0.00 Overcast OVC030 16.1 12.2 78% 76.23 1015.4
06 21:51 N 17 0.00 Overcast OVC028 16.1 12.8 81% 76.2 1015.2
06 20:51 N 13 0.00 Overcast OVC026 16.1 12.8 81% 76.1 1014.0
06 19:51 N 13 0.00 Overcast SCT016 OVC026 16.1 12.8 81% 76.02 1013.0
06 18:51 N 11 0.00 Overcast BKN024 OVC039 16.1 12.2 16.1 15 78% 76.02 1012.7
06 17:51 N 20 0.00 Overcast BKN022 OVC034 15.6 12.2 80% 75.97 1011.9
06 16:51 N 20 0.00 Overcast OVC015 15.6 12.2 80% 76 1012.3
06 15:51 N 22 0.00 Overcast OVC015 15.6 12.2 80% 76 1012.4
06 14:51 N 20 0.00 Overcast OVC013 15.6 12.2 80% 76.02 1012.5
06 13:51 N 24 0.00 Overcast OVC015 16.1 12.2 78% 76 1012.4
06 12:51 N 20 0.00 Overcast OVC015 17.2 13.3 18.3 12.8 78% 76 1012.2
06 11:51 Vrbl 6 G 43 0.00 Fair CLR 15 13.9 93% 75.92 1011.4
06 10:51 N 24 G 37 0.00 Overcast OVC007 12.8 12.2 96% 76.12 1014.1
06 09:51 N 24 G 41 0.00 Overcast OVC009 13.9 13.3 96% 76 1012.2
06 08:51 N 26 G 33 0.00 Overcast OVC007 15.6 15 96% 75.9 1010.9
06 07:51 N 22 0.00 Overcast OVC005 17.2 16.7 97% 75.82 1010.0
06 06:51 N 20 0.00 Overcast OVC005 18.3 17.8 23.9 18.3 97% 75.77 1009.1
06 05:51 S 9 0.00 Overcast BKN015 OVC020 22.8 22.8 100% 75.72 1008.3
06 04:51 S 7 0.00 Overcast BKN006 OVC010 23.3 22.8 97% 75.67 1007.6
06 03:51 S 11 0.00 Overcast OVC010 23.3 22.2 94% 75.64 1007.5
06 02:51 S 20 0.00 Overcast OVC010 23.9 22.2 90% 23 75.64 1007.4
06 01:51 S 15 0.00 Overcast OVC010 23.9 22.2 90% 23 75.69 1007.7
06 00:51 S 20 0.00 Mostly Cloudy BKN012 23.3 21.7 27.8 23.3 91% 75.64 1007.3
05 23:51 S 26 0.00 Fair CLR 23.3 22.2 94% 75.59 1006.7
05 22:51 S 24 0.00 Fair CLR 24.4 22.2 88% 25 75.59 1006.6
05 21:51 S 15 0.00 Fair CLR 24.4 21.7 85% 25 75.54 1005.9
05 20:51 S 17 0.00 Fair CLR 25 21.7 82% 26 75.46 1005.1
05 19:51 S 20 0.00 Fair CLR 26.1 21.7 77% 28 75.44 1004.5
Date Time (cdt) Wind (kph) Vis. (km) Weather Sky Cond. Air Dwpt Max. Min. Relative Humidity Wind Chill (°C) Heat Index (°C) altimeter (cm) sea level (mb) 1 hr 3 hr 6 hr
6 hour
Temperature (ºC) Pressure Precipitation (cm)